Total_Precipitation_Accumulation
0.17 0.15 0.12 0.11 0.10 0.09 0.09 0.07 0.06 0.06 0.05 0.05 0.05 0.04 0.04 0.05 0.04 0.04 0.05 0.04 0.03 0.03 0.03 0.03 0.03 0.03 0.03 0.03 0.03 0.03 0.03 0.03 0.03 0.03 0.05 0.08 0.10 0.09 0.09 0.09 0.11 0.11 0.10 0.11 0.16 0.26 0.32 0.33 0.28 0.25 0.23 0.32 0.42 0.44 0.39 0.33 0.28 0.36 0.36 0.44 0.52 0.49 0.49 0.62 0.64 0.43 0.16 0.04 0.04 0.07 0.08 0.11 0.22 0.28 0.39 0.41 0.37 0.29 0.28 0.27 0.32 0.36 0.34 0.35 0.36
0.14 0.11 0.10 0.10 0.10 0.10 0.09 0.08 0.07 0.06 0.06 0.05 0.04 0.04 0.03 0.03 0.03 0.03 0.03 0.03 0.05 0.06 0.06 0.17 0.05 0.06 0.06 0.05 0.04 0.04 0.04 0.04 0.04 0.05 0.05 0.05 0.06 0.07 0.10 0.12 0.15 0.13 0.11 0.12 0.11 0.12 0.19 0.29 0.27 0.25 0.25 0.32 0.38 0.40 0.41 0.44 0.45 0.43 0.37 0.37 0.46 0.47 0.41 0.53 0.65 0.52 0.37 0.12 0.05 0.03 0.05 0.08 0.19 0.21 0.31 0.35 0.41 0.35 0.33 0.32 0.26 0.28 0.32 0.32 0.36
0.12 0.11 0.10 0.10 0.10 0.09 0.08 0.08 0.08 0.08 0.08 0.07 0.06 0.06 0.06 0.04 0.03 0.04 0.04 0.04 0.04 0.05 0.08 0.10 0.10 0.12 0.12 0.14 0.12 0.11 0.10 0.09 0.09 0.08 0.10 0.10 0.10 0.10 0.08 0.10 0.13 0.16 0.15 0.14 0.12 0.16 0.16 0.20 0.22 0.21 0.24 0.32 0.36 0.37 0.37 0.40 0.45 0.53 0.50 0.41 0.37 0.34 0.33 0.39 0.54 0.58 0.43 0.27 0.11 0.06 0.05 0.06 0.11 0.21 0.23 0.28 0.33 0.35 0.40 0.38 0.38 0.34 0.33 0.28 0.30
0.13 0.12 0.12 0.11 0.09 0.09 0.08 0.08 0.07 0.06 0.06 0.07 0.05 0.07 0.04 0.05 0.05 0.08 0.08 0.10 0.11 0.09 0.09 0.09 0.08 0.07 0.06 0.07 0.06 0.06 0.06 0.06 0.06 0.06 0.07 0.08 0.09 0.09 0.08 0.10 0.13 0.17 0.19 0.18 0.18 0.18 0.19 0.24 0.21 0.17 0.22 0.31 0.34 0.33 0.32 0.36 0.42 0.47 0.49 0.44 0.39 0.36 0.32 0.35 0.47 0.60 0.51 0.41 0.22 0.12 0.08 0.08 0.09 0.09 0.13 0.21 0.31 0.43 0.48 0.47 0.40 0.40 0.34 0.30 0.31
0.15 0.15 0.13 0.12 0.10 0.10 0.09 0.07 0.06 0.07 0.08 0.06 0.06 0.07 0.06 0.06 0.07 0.08 0.07 0.07 0.06 0.06 0.06 0.07 0.07 0.08 0.08 0.08 0.07 0.07 0.07 0.08 0.08 0.08 0.07 0.08 0.08 0.10 0.11 0.11 0.11 0.12 0.14 0.15 0.18 0.20 0.23 0.24 0.25 0.26 0.25 0.29 0.33 0.37 0.35 0.39 0.45 0.44 0.47 0.46 0.44 0.38 0.35 0.35 0.43 0.44 0.55 0.54 0.40 0.20 0.11 0.08 0.08 0.09 0.11 0.18 0.26 0.37 0.49 0.52 0.55 0.50 0.42 0.34 0.30
0.13 0.13 0.11 0.11 0.12 0.09 0.09 0.08 0.08 0.06 0.06 0.06 0.06 0.06 0.05 0.06 0.06 0.06 0.06 0.07 0.08 0.08 0.08 0.08 0.08 0.09 0.09 0.09 0.08 0.09 0.08 0.10 0.10 0.11 0.10 0.10 0.11 0.11 0.13 0.14 0.15 0.16 0.16 0.15 0.16 0.18 0.23 0.25 0.23 0.23 0.28 0.33 0.32 0.29 0.32 0.38 0.48 0.54 0.55 0.52 0.50 0.47 0.48 0.48 0.40 0.42 0.49 0.46 0.37 0.32 0.18 0.15 0.12 0.12 0.12 0.15 0.22 0.30 0.41 0.47 0.51 0.53 0.55 0.51 0.41
0.10 0.09 0.10 0.10 0.10 0.09 0.08 0.07 0.06 0.06 0.07 0.07 0.07 0.07 0.08 0.08 0.08 0.09 0.09 0.11 0.11 0.10 0.09 0.09 0.08 0.09 0.09 0.09 0.10 0.11 0.11 0.11 0.13 0.13 0.13 0.13 0.14 0.15 0.16 0.16 0.18 0.18 0.19 0.19 0.19 0.18 0.18 0.20 0.21 0.23 0.26 0.29 0.33 0.32 0.33 0.37 0.44 0.47 0.55 0.53 0.55 0.60 0.69 0.69 0.64 0.58 0.55 0.49 0.40 0.34 0.25 0.16 0.14 0.16 0.11 0.11 0.16 0.24 0.34 0.40 0.48 0.50 0.48 0.52 0.52
0.11 0.11 0.10 0.09 0.09 0.09 0.08 0.08 0.08 0.09 0.09 0.09 0.09 0.10 0.10 0.11 0.12 0.12 0.12 0.12 0.12 0.11 0.12 0.12 0.11 0.12 0.12 0.13 0.12 0.13 0.15 0.16 0.17 0.18 0.17 0.17 0.19 0.21 0.22 0.23 0.23 0.22 0.20 0.18 0.17 0.19 0.20 0.19 0.19 0.20 0.23 0.27 0.29 0.29 0.32 0.39 0.45 0.56 0.48 0.71 0.61 0.75 0.82 0.77 0.76 0.76 0.68 0.59 0.52 0.43 0.30 0.24 0.17 0.13 0.11 0.15 0.21 0.25 0.26 0.36 0.46 0.43 0.44 0.43 0.45
0.11 0.09 0.08 0.08 0.09 0.09 0.09 0.10 0.10 0.10 0.10 0.11 0.12 0.13 0.14 0.15 0.15 0.16 0.16 0.13 0.13 0.13 0.14 0.15 0.16 0.18 0.17 0.18 0.18 0.18 0.20 0.21 0.21 0.30 0.34 0.32 0.33 0.35 0.33 0.33 0.32 0.29 0.25 0.21 0.20 0.22 0.23 0.23 0.23 0.22 0.20 0.21 0.23 0.27 0.31 0.35 0.46 0.53 0.52 0.54 0.62 0.71 0.73 0.78 0.81 0.83 0.81 0.70 0.62 0.41 0.35 0.31 0.23 0.20 0.21 0.20 0.20 0.24 0.22 0.21 0.27 0.29 0.34 0.37 0.41
0.06 0.07 0.07 0.07 0.08 0.08 0.11 0.11 0.12 0.10 0.16 0.14 0.15 0.16 0.17 0.18 0.22 0.20 0.16 0.15 0.16 0.16 0.19 0.21 0.23 0.22 0.22 0.21 0.23 0.27 0.30 0.34 0.32 0.31 0.41 0.50 0.58 0.61 0.59 0.53 0.47 0.43 0.39 0.34 0.30 0.28 0.28 0.28 0.26 0.23 0.23 0.25 0.27 0.32 0.37 0.42 0.48 0.58 0.60 0.62 0.69 0.73 0.79 0.80 0.81 0.78 0.81 0.83 0.73 0.52 0.50 0.40 0.26 0.18 0.17 0.14 0.10 0.08 0.10 0.15 0.22 0.22 0.25 0.35 0.40
0.05 0.05 0.06 0.07 0.08 0.09 0.10 0.10 0.15 0.12 0.15 0.15 0.16 0.17 0.18 0.18 0.19 0.18 0.17 0.19 0.20 0.18 0.18 0.18 0.19 0.19 0.20 0.21 0.21 0.22 0.25 0.25 0.30 0.45 0.63 0.85 0.91 0.89 0.76 0.63 0.51 0.48 0.47 0.48 0.45 0.34 0.29 0.27 0.27 0.28 0.31 0.33 0.36 0.38 0.41 0.47 0.51 0.56 0.58 0.58 0.69 0.82 0.91 0.84 0.74 0.64 0.68 0.71 0.60 0.55 0.45 0.37 0.23 0.14 0.12 0.12 0.10 0.11 0.13 0.14 0.16 0.20 0.30 0.43 0.55
0.07 0.07 0.07 0.07 0.07 0.08 0.08 0.09 0.12 0.13 0.14 0.17 0.17 0.17 0.16 0.18 0.18 0.16 0.15 0.15 0.15 0.15 0.15 0.15 0.15 0.26 0.19 0.20 0.21 0.22 0.20 0.22 0.41 0.60 0.82 1.19 1.24 1.12 1.10 0.92 0.76 0.66 0.59 0.55 0.49 0.45 0.40 0.37 0.34 0.30 0.30 0.31 0.32 0.35 0.37 0.41 0.46 0.50 0.58 0.63 0.68 0.73 0.83 0.88 0.90 0.78 0.68 0.67 0.66 0.56 0.48 0.37 0.26 0.18 0.15 0.15 0.16 0.15 0.16 0.19 0.22 0.27 0.33 0.37 0.40
0.07 0.08 0.07 0.08 0.08 0.09 0.10 0.12 0.14 0.15 0.15 0.15 0.16 0.17 0.18 0.19 0.18 0.19 0.18 0.17 0.16 0.18 0.15 0.17 0.18 0.18 0.21 0.23 0.22 0.20 0.34 0.22 0.40 0.67 0.89 1.28 1.49 1.51 1.40 1.30 0.99 0.86 0.72 0.62 0.56 0.49 0.45 0.43 0.41 0.37 0.34 0.33 0.38 0.39 0.41 0.44 0.43 0.47 0.54 0.57 0.69 0.92 0.97 1.04 1.01 0.90 0.94 0.94 0.86 0.73 0.60 0.43 0.40 0.30 0.21 0.22 0.28 0.31 0.29 0.32 0.30 0.29 0.30 0.33 0.31
0.08 0.08 0.08 0.08 0.09 0.11 0.13 0.15 0.15 0.15 0.15 0.16 0.17 0.19 0.22 0.21 0.20 0.22 0.20 0.20 0.19 0.17 0.17 0.18 0.19 0.22 0.26 0.31 0.33 0.29 0.28 0.27 0.44 0.68 0.96 1.30 1.46 1.95 1.46 1.33 1.07 0.82 0.66 0.57 0.51 0.48 0.46 0.46 0.46 0.43 0.39 0.41 0.44 0.43 0.41 0.42 0.44 0.47 0.54 0.59 0.61 0.59 0.74 0.84 0.86 0.90 0.97 1.03 1.08 0.97 0.64 0.53 0.45 0.34 0.30 0.34 0.42 0.46 0.48 0.46 0.38 0.34 0.34 0.33 0.26
0.09 0.08 0.09 0.10 0.11 0.13 0.14 0.15 0.15 0.15 0.14 0.15 0.16 0.17 0.20 0.21 0.22 0.23 0.24 0.24 0.25 0.24 0.23 0.25 0.25 0.27 0.28 0.31 0.37 0.35 0.30 0.34 0.57 0.86 1.09 1.44 1.58 1.77 1.44 1.22 0.97 0.77 0.62 0.53 0.49 0.46 0.43 0.41 0.40 0.39 0.38 0.42 0.45 0.46 0.52 0.53 0.54 0.57 0.57 0.51 0.46 0.42 0.40 0.55 0.53 0.66 0.77 0.76 0.74 0.65 0.50 0.45 0.41 0.41 0.55 0.49 0.63 0.65 0.62 0.50 0.46 0.38 0.36 0.34 0.35
0.11 0.10 0.12 0.12 0.13 0.13 0.14 0.15 0.15 0.15 0.16 0.17 0.19 0.20 0.21 0.20 0.23 0.21 0.24 0.25 0.24 0.25 0.24 0.25 0.25 0.24 0.22 0.25 0.31 0.32 0.28 0.32 0.54 0.89 1.25 1.57 1.73 1.48 1.32 1.16 0.86 0.71 0.62 0.64 0.55 0.53 0.50 0.53 0.50 0.48 0.42 0.40 0.41 0.55 0.55 0.61 0.68 0.68 0.62 0.52 0.46 0.42 0.39 0.32 0.41 0.61 0.50 0.70 0.62 0.58 0.56 0.53 0.81 0.68 0.76 0.76 0.85 0.75 0.61 0.58 0.58 0.65 0.70 0.74 0.68
0.12 0.13 0.14 0.14 0.15 0.16 0.17 0.19 0.20 0.19 0.19 0.20 0.20 0.20 0.22 0.23 0.25 0.26 0.30 0.28 0.29 0.28 0.28 0.26 0.24 0.22 0.22 0.23 0.24 0.19 0.20 0.25 0.38 0.70 1.07 1.30 1.48 1.35 1.26 1.08 0.82 0.65 0.56 0.48 0.47 0.47 0.50 0.51 0.53 0.49 0.44 0.41 0.41 0.59 0.79 0.85 0.88 0.78 0.69 0.61 0.52 0.48 0.45 0.35 0.56 0.96 1.32 1.64 1.80 1.88 1.77 1.78 1.78 2.01 2.00 1.85 1.23 1.25 1.39 1.46 1.19 0.81 0.85 0.92 0.74
0.14 0.15 0.15 0.16 0.19 0.20 0.22 0.22 0.22 0.20 0.19 0.21 0.21 0.22 0.25 0.26 0.26 0.26 0.29 0.28 0.26 0.21 0.19 0.19 0.17 0.19 0.18 0.19 0.21 0.22 0.18 0.18 0.28 0.58 0.90 1.15 1.43 1.46 1.35 1.07 0.84 0.69 0.59 0.49 0.46 0.45 0.40 0.42 0.46 0.48 0.50 0.45 0.49 0.62 1.05 1.03 1.08 0.91 0.80 0.73 0.66 0.63 0.51 0.40 0.41 0.46 0.78 1.18 1.55 1.79 1.88 1.76 1.64 1.67 1.86 1.84 2.05 1.67 1.75 1.87 1.13 0.70 0.76 0.71 0.66
0.17 0.19 0.21 0.20 0.22 0.22 0.20 0.20 0.20 0.21 0.22 0.21 0.24 0.28 0.27 0.24 0.20 0.20 0.21 0.20 0.19 0.17 0.19 0.19 0.15 0.14 0.15 0.19 0.20 0.26 0.27 0.26 0.30 0.45 0.73 1.09 1.19 1.19 1.05 0.95 0.84 0.66 0.57 0.54 0.47 0.48 0.43 0.42 0.46 0.49 0.48 0.45 0.68 0.95 1.24 1.23 1.26 1.00 0.79 0.76 0.72 0.61 0.42 0.35 0.42 0.51 0.59 0.58 0.60 0.65 0.80 1.00 1.09 1.03 0.93 1.00 1.11 1.39 1.28 1.50 1.19 1.00 1.01 0.75 0.59
0.20 0.22 0.22 0.23 0.20 0.18 0.19 0.21 0.22 0.23 0.24 0.24 0.24 0.26 0.23 0.21 0.19 0.20 0.19 0.18 0.18 0.18 0.18 0.18 0.19 0.16 0.15 0.18 0.20 0.26 0.32 0.28 0.31 0.35 0.66 0.99 1.33 1.20 1.10 1.05 0.95 0.77 0.70 0.65 0.63 0.52 0.44 0.45 0.45 0.52 0.60 0.75 0.89 1.27 1.44 2.15 1.68 1.29 0.98 0.94 0.89 0.71 0.46 0.41 0.42 0.45 0.50 0.48 0.43 0.43 0.47 0.51 0.57 0.60 0.62 0.61 0.64 0.78 0.98 0.77 0.79 0.96 0.98 0.82 0.65
0.22 0.21 0.21 0.19 0.18 0.19 0.21 0.24 0.26 0.25 0.25 0.28 0.27 0.22 0.19 0.20 0.19 0.18 0.18 0.17 0.20 0.21 0.18 0.17 0.19 0.18 0.17 0.17 0.21 0.26 0.32 0.40 0.40 0.43 0.55 0.75 1.08 1.31 1.07 0.93 0.81 0.78 0.81 0.80 0.69 0.59 0.47 0.40 0.37 0.36 0.40 0.54 0.82 1.18 1.49 1.86 1.67 1.44 1.54 1.28 0.90 0.65 0.64 0.67 0.64 0.62 0.56 0.53 0.47 0.48 0.46 0.48 0.50 0.51 0.53 0.50 0.54 0.61 0.62 0.69 0.66 0.56 0.58 0.68 0.73
0.19 0.20 0.20 0.19 0.20 0.21 0.23 0.25 0.26 0.27 0.24 0.23 0.23 0.19 0.16 0.17 0.19 0.19 0.20 0.24 0.24 0.20 0.18 0.20 0.23 0.21 0.20 0.23 0.29 0.34 0.30 0.28 0.27 0.24 0.27 0.51 0.80 1.26 1.08 0.90 0.76 0.90 0.97 0.84 0.67 0.54 0.43 0.36 0.34 0.34 0.40 0.53 0.68 1.17 1.75 1.83 1.81 1.49 1.30 1.82 1.91 1.81 1.16 0.96 0.86 0.80 0.73 0.67 0.61 0.59 0.56 0.55 0.58 0.55 0.50 0.46 0.42 0.40 0.48 0.54 0.60 0.59 0.50 0.47 0.48
0.21 0.22 0.21 0.21 0.21 0.22 0.23 0.24 0.24 0.23 0.23 0.22 0.25 0.22 0.17 0.17 0.18 0.22 0.27 0.30 0.28 0.28 0.26 0.27 0.29 0.27 0.23 0.22 0.23 0.26 0.27 0.27 0.26 0.25 0.25 0.37 0.60 0.96 1.10 1.08 1.16 1.01 1.07 0.99 0.75 0.56 0.44 0.40 0.35 0.36 0.50 0.70 1.10 1.55 1.79 1.91 1.44 1.34 2.00 1.94 1.69 1.52 1.45 1.30 1.31 1.28 1.17 0.99 0.81 0.72 0.62 0.53 0.51 0.50 0.46 0.44 0.41 0.38 0.42 0.45 0.47 0.51 0.59 0.60 0.47
0.23 0.24 0.21 0.20 0.19 0.19 0.20 0.20 0.20 0.22 0.25 0.25 0.23 0.22 0.20 0.20 0.22 0.23 0.25 0.31 0.32 0.30 0.23 0.25 0.27 0.27 0.25 0.25 0.27 0.29 0.29 0.28 0.28 0.28 0.29 0.31 0.46 0.87 1.13 1.15 1.26 1.05 0.90 0.74 0.59 0.50 0.46 0.40 0.39 0.48 0.85 1.21 1.70 1.93 1.85 1.64 1.34 1.48 1.75 1.51 1.50 1.54 1.38 1.26 1.18 1.17 1.12 1.02 0.93 0.81 0.70 0.57 0.50 0.49 0.44 0.38 0.37 0.36 0.36 0.40 0.44 0.46 0.66 0.55 0.45
0.25 0.23 0.21 0.18 0.18 0.17 0.19 0.19 0.20 0.21 0.22 0.23 0.25 0.24 0.20 0.19 0.23 0.20 0.26 0.32 0.34 0.32 0.26 0.29 0.32 0.31 0.31 0.35 0.37 0.35 0.32 0.30 0.30 0.29 0.30 0.30 0.39 0.66 0.83 0.88 0.80 0.71 0.70 0.57 0.51 0.50 0.50 0.70 0.89 1.21 1.24 1.36 1.41 1.39 1.32 1.19 1.28 1.14 1.18 1.12 1.09 0.98 1.15 1.17 1.00 0.82 0.84 0.87 0.76 0.62 0.54 0.52 0.45 0.41 0.40 0.41 0.45 0.44 0.49 0.52 0.55 0.55 0.55 0.59 0.50
0.24 0.21 0.17 0.16 0.16 0.17 0.19 0.17 0.18 0.19 0.18 0.17 0.19 0.20 0.21 0.23 0.27 0.25 0.29 0.33 0.30 0.34 0.36 0.35 0.36 0.37 0.41 0.43 0.46 0.42 0.37 0.34 0.31 0.29 0.30 0.31 0.34 0.49 0.68 0.53 0.49 0.49 0.53 0.49 0.41 0.41 0.66 0.93 0.94 0.75 0.74 0.73 0.76 0.75 0.85 0.55 0.55 0.68 0.78 0.86 0.93 0.89 0.86 0.89 0.89 0.76 0.68 0.54 0.48 0.48 0.47 0.46 0.50 0.46 0.44 0.43 0.44 0.45 0.42 0.43 0.45 0.54 0.47 0.44 0.46
0.21 0.18 0.15 0.15 0.17 0.18 0.20 0.20 0.21 0.19 0.17 0.17 0.18 0.18 0.20 0.23 0.26 0.29 0.33 0.35 0.34 0.38 0.40 0.43 0.45 0.47 0.51 0.44 0.42 0.40 0.37 0.34 0.32 0.29 0.29 0.36 0.37 0.38 0.50 0.50 0.47 0.46 0.44 0.48 0.48 0.48 0.47 0.54 0.55 0.56 0.58 0.61 0.66 0.69 0.56 0.45 0.50 0.63 0.63 0.68 0.76 0.85 0.78 0.68 0.63 0.64 0.60 0.49 0.44 0.41 0.40 0.43 0.50 0.59 0.62 0.53 0.50 0.46 0.38 0.36 0.38 0.40 0.40 0.42 0.42
0.21 0.19 0.16 0.17 0.20 0.20 0.22 0.20 0.20 0.19 0.18 0.19 0.21 0.19 0.19 0.20 0.26 0.31 0.37 0.46 0.56 0.55 0.55 0.57 0.62 0.69 0.72 0.56 0.46 0.36 0.37 0.38 0.34 0.38 0.42 0.46 0.49 0.55 0.58 0.53 0.48 0.41 0.43 0.45 0.46 0.45 0.46 0.52 0.61 0.69 0.78 0.81 0.74 0.68 0.63 0.67 0.61 0.51 0.44 0.48 0.59 0.63 0.70 0.76 0.78 0.56 0.54 0.46 0.44 0.45 0.48 0.50 0.59 0.58 0.62 0.61 0.50 0.41 0.39 0.42 0.35 0.38 0.36 0.37 0.50
0.19 0.17 0.16 0.18 0.18 0.18 0.20 0.20 0.19 0.20 0.20 0.19 0.23 0.26 0.26 0.29 0.33 0.30 0.25 0.37 0.57 0.90 1.13 1.03 0.94 0.98 0.84 0.77 0.69 0.54 0.46 0.46 0.44 0.45 0.50 0.61 0.74 0.82 0.78 0.66 0.55 0.51 0.47 0.48 0.48 0.52 0.53 0.56 0.55 0.49 0.44 0.45 0.54 0.59 0.55 0.50 0.46 0.43 0.43 0.44 0.49 0.62 0.74 0.77 0.81 0.77 0.66 0.58 0.55 0.56 0.55 0.54 0.53 0.50 0.49 0.57 0.54 0.53 0.41 0.41 0.36 0.34 0.37 0.34 0.37
0.24 0.19 0.17 0.18 0.17 0.19 0.21 0.19 0.17 0.19 0.20 0.19 0.19 0.21 0.25 0.32 0.36 0.46 0.42 0.33 0.42 0.61 1.06 1.22 1.24 1.21 1.18 0.93 0.78 0.86 0.84 0.65 0.65 0.84 0.94 1.12 1.02 0.98 0.92 0.92 0.79 0.68 0.59 0.49 0.55 0.55 0.55 0.54 0.50 0.47 0.46 0.45 0.47 0.52 0.53 0.52 0.53 0.52 0.49 0.47 0.46 0.49 0.57 0.72 0.68 0.61 0.58 0.61 0.59 0.57 0.53 0.51 0.52 0.52 0.49 0.48 0.43 0.43 0.47 0.47 0.46 0.39 0.43 0.47 0.45
0.29 0.22 0.20 0.19 0.19 0.22 0.21 0.19 0.18 0.20 0.20 0.20 0.19 0.21 0.20 0.20 0.28 0.36 0.37 0.38 0.40 0.58 0.80 1.06 1.18 1.18 1.41 1.31 0.85 0.69 0.66 0.58 0.70 0.75 0.93 1.17 1.37 0.96 0.99 0.96 0.86 0.88 0.81 0.78 0.78 0.69 0.62 0.54 0.51 0.48 0.46 0.46 0.48 0.50 0.51 0.47 0.47 0.50 0.52 0.49 0.47 0.48 0.48 0.52 0.66 0.68 0.72 0.75 0.71 0.63 0.60 0.56 0.53 0.51 0.52 0.45 0.44 0.42 0.43 0.47 0.48 0.53 0.51 0.44 0.43
0.37 0.28 0.24 0.22 0.21 0.19 0.20 0.20 0.20 0.20 0.19 0.18 0.19 0.20 0.19 0.17 0.15 0.21 0.34 0.38 0.41 0.53 0.62 0.77 0.97 1.15 1.13 1.13 1.04 0.86 0.71 0.69 0.64 0.83 0.98 1.30 0.92 0.78 0.85 0.85 0.98 0.98 0.81 0.67 0.63 0.64 0.56 0.53 0.51 0.50 0.49 0.49 0.50 0.50 0.49 0.45 0.45 0.46 0.51 0.57 0.57 0.52 0.50 0.51 0.53 0.58 0.60 0.64 0.71 0.73 0.72 0.70 0.62 0.55 0.54 0.50 0.48 0.48 0.47 0.52 0.57 0.53 0.55 0.53 0.46
0.34 0.30 0.25 0.23 0.22 0.19 0.19 0.20 0.20 0.20 0.21 0.21 0.20 0.20 0.21 0.21 0.23 0.18 0.18 0.24 0.34 0.40 0.41 0.46 0.58 0.67 0.75 0.88 1.00 1.03 0.87 0.79 0.77 1.04 1.09 0.87 0.65 0.61 0.75 0.94 0.93 0.76 0.78 0.63 0.50 0.48 0.46 0.43 0.47 0.49 0.48 0.49 0.49 0.48 0.49 0.48 0.47 0.46 0.47 0.49 0.52 0.54 0.52 0.49 0.50 0.51 0.56 0.65 0.70 0.66 0.66 0.76 0.72 0.67 0.59 0.55 0.56 0.59 0.55 0.50 0.46 0.48 0.49 0.52 0.51
0.29 0.31 0.29 0.26 0.25 0.22 0.20 0.21 0.22 0.21 0.21 0.23 0.22 0.22 0.21 0.23 0.25 0.25 0.25 0.17 0.19 0.25 0.30 0.32 0.34 0.36 0.37 0.46 0.57 0.59 0.64 0.73 0.69 0.61 0.70 0.71 0.87 0.88 0.78 0.68 0.56 0.47 0.49 0.50 0.46 0.42 0.40 0.38 0.39 0.40 0.40 0.39 0.40 0.41 0.41 0.42 0.42 0.42 0.42 0.44 0.45 0.46 0.47 0.47 0.47 0.49 0.53 0.56 0.63 0.62 0.62 0.64 0.68 0.75 0.78 0.72 0.61 0.54 0.55 0.52 0.49 0.52 0.56 0.56 0.52
0.26 0.24 0.21 0.21 0.23 0.23 0.22 0.22 0.23 0.23 0.22 0.22 0.22 0.23 0.24 0.22 0.25 0.29 0.32 0.31 0.32 0.30 0.26 0.27 0.23 0.21 0.29 0.34 0.41 0.42 0.43 0.46 0.52 0.58 0.64 0.70 0.74 0.67 0.59 0.49 0.42 0.29 0.25 0.25 0.27 0.29 0.29 0.30 0.31 0.31 0.31 0.31 0.32 0.32 0.33 0.34 0.35 0.35 0.35 0.35 0.35 0.37 0.39 0.42 0.43 0.43 0.44 0.47 0.49 0.50 0.52 0.56 0.58 0.63 0.69 0.75 0.74 0.75 0.67 0.61 0.57 0.59 0.55 0.51 0.48
0.25 0.24 0.20 0.18 0.20 0.21 0.22 0.22 0.23 0.24 0.24 0.23 0.23 0.25 0.24 0.23 0.26 0.27 0.27 0.27 0.33 0.32 0.28 0.25 0.25 0.22 0.21 0.24 0.31 0.34 0.36 0.37 0.46 0.57 0.68 0.73 0.69 0.60 0.49 0.38 0.27 0.22 0.22 0.23 0.22 0.23 0.24 0.25 0.26 0.25 0.26 0.27 0.29 0.30 0.31 0.32 0.33 0.34 0.33 0.32 0.30 0.30 0.31 0.33 0.35 0.37 0.39 0.42 0.44 0.46 0.48 0.52 0.55 0.58 0.62 0.65 0.67 0.67 0.64 0.58 0.56 0.53 0.51 0.50 0.49
0.27 0.24 0.21 0.19 0.21 0.22 0.21 0.21 0.21 0.21 0.22 0.22 0.22 0.22 0.22 0.20 0.22 0.23 0.23 0.23 0.28 0.27 0.27 0.24 0.20 0.17 0.18 0.17 0.25 0.27 0.28 0.34 0.42 0.46 0.53 0.54 0.45 0.31 0.25 0.22 0.22 0.22 0.21 0.22 0.22 0.21 0.21 0.21 0.22 0.22 0.22 0.24 0.26 0.27 0.28 0.28 0.28 0.27 0.27 0.27 0.28 0.28 0.30 0.32 0.34 0.34 0.35 0.37 0.39 0.40 0.42 0.46 0.49 0.50 0.54 0.58 0.60 0.62 0.64 0.64 0.63 0.59 0.58 0.53 0.50
0.24 0.23 0.22 0.22 0.23 0.22 0.21 0.20 0.19 0.19 0.18 0.19 0.19 0.20 0.21 0.20 0.21 0.21 0.23 0.23 0.24 0.26 0.25 0.22 0.21 0.19 0.21 0.20 0.21 0.27 0.27 0.26 0.25 0.27 0.30 0.31 0.27 0.22 0.20 0.22 0.23 0.22 0.21 0.20 0.21 0.21 0.20 0.19 0.20 0.20 0.20 0.20 0.19 0.19 0.19 0.20 0.20 0.20 0.19 0.19 0.21 0.22 0.28 0.28 0.32 0.33 0.33 0.33 0.34 0.37 0.40 0.42 0.46 0.48 0.49 0.49 0.49 0.52 0.55 0.56 0.59 0.64 0.65 0.63 0.62
0.22 0.19 0.19 0.19 0.21 0.22 0.22 0.21 0.19 0.19 0.18 0.18 0.18 0.20 0.21 0.20 0.19 0.20 0.21 0.21 0.19 0.20 0.22 0.22 0.22 0.22 0.22 0.25 0.28 0.28 0.25 0.25 0.26 0.27 0.29 0.28 0.23 0.21 0.21 0.22 0.22 0.20 0.21 0.21 0.21 0.21 0.20 0.19 0.19 0.18 0.18 0.18 0.18 0.18 0.19 0.18 0.18 0.17 0.17 0.17 0.17 0.17 0.19 0.20 0.22 0.26 0.30 0.31 0.31 0.33 0.35 0.37 0.40 0.43 0.46 0.44 0.42 0.43 0.47 0.50 0.51 0.53 0.56 0.58 0.59
0.25 0.21 0.19 0.18 0.20 0.20 0.20 0.20 0.19 0.20 0.20 0.20 0.18 0.19 0.21 0.20 0.21 0.22 0.23 0.21 0.19 0.19 0.21 0.23 0.23 0.23 0.25 0.29 0.34 0.34 0.28 0.26 0.24 0.23 0.23 0.23 0.23 0.24 0.22 0.20 0.20 0.22 0.23 0.24 0.23 0.22 0.22 0.20 0.19 0.19 0.18 0.17 0.17 0.17 0.18 0.18 0.18 0.17 0.16 0.16 0.16 0.17 0.17 0.18 0.19 0.20 0.22 0.25 0.28 0.29 0.30 0.31 0.32 0.35 0.39 0.41 0.41 0.41 0.43 0.43 0.43 0.47 0.47 0.45 0.43
0.27 0.24 0.21 0.19 0.20 0.21 0.19 0.19 0.19 0.21 0.21 0.20 0.20 0.22 0.22 0.22 0.22 0.23 0.23 0.20 0.19 0.18 0.20 0.23 0.25 0.25 0.28 0.34 0.33 0.39 0.36 0.34 0.29 0.26 0.26 0.24 0.22 0.20 0.19 0.20 0.22 0.22 0.22 0.23 0.23 0.23 0.22 0.21 0.19 0.18 0.17 0.16 0.17 0.18 0.18 0.18 0.17 0.17 0.17 0.16 0.16 0.16 0.16 0.16 0.17 0.18 0.19 0.21 0.23 0.25 0.26 0.27 0.28 0.31 0.32 0.34 0.38 0.39 0.38 0.41 0.43 0.43 0.44 0.44 0.41
0.26 0.25 0.24 0.21 0.19 0.21 0.21 0.19 0.20 0.19 0.19 0.20 0.19 0.22 0.24 0.23 0.22 0.24 0.22 0.20 0.19 0.19 0.20 0.20 0.22 0.24 0.27 0.30 0.30 0.34 0.29 0.26 0.25 0.24 0.24 0.24 0.22 0.21 0.21 0.20 0.21 0.22 0.23 0.24 0.25 0.24 0.22 0.20 0.18 0.18 0.17 0.17 0.17 0.17 0.18 0.18 0.18 0.18 0.17 0.17 0.16 0.16 0.16 0.16 0.16 0.17 0.18 0.19 0.20 0.21 0.22 0.25 0.27 0.29 0.30 0.34 0.32 0.33 0.35 0.36 0.38 0.39 0.42 0.43 0.42
0.25 0.25 0.25 0.23 0.22 0.23 0.24 0.22 0.20 0.19 0.17 0.18 0.19 0.20 0.22 0.22 0.23 0.23 0.22 0.21 0.19 0.19 0.19 0.18 0.19 0.20 0.23 0.24 0.24 0.24 0.22 0.22 0.22 0.24 0.24 0.23 0.23 0.22 0.21 0.21 0.21 0.22 0.23 0.23 0.23 0.22 0.21 0.20 0.19 0.18 0.18 0.17 0.18 0.19 0.20 0.19 0.18 0.18 0.18 0.18 0.18 0.17 0.16 0.16 0.16 0.17 0.17 0.17 0.17 0.18 0.20 0.21 0.22 0.24 0.25 0.26 0.28 0.29 0.30 0.31 0.32 0.33 0.35 0.38 0.39
0.25 0.25 0.25 0.25 0.23 0.22 0.22 0.22 0.21 0.20 0.21 0.20 0.20 0.19 0.20 0.21 0.21 0.21 0.20 0.19 0.18 0.18 0.19 0.19 0.20 0.21 0.23 0.23 0.22 0.20 0.20 0.20 0.22 0.23 0.23 0.22 0.21 0.21 0.21 0.21 0.21 0.21 0.21 0.20 0.20 0.20 0.20 0.19 0.19 0.17 0.16 0.16 0.17 0.17 0.17 0.17 0.18 0.20 0.19 0.19 0.18 0.18 0.18 0.18 0.18 0.18 0.19 0.20 0.19 0.18 0.18 0.18 0.19 0.20 0.22 0.22 0.25 0.26 0.26 0.27 0.28 0.28 0.28 0.31 0.33
0.24 0.24 0.25 0.26 0.23 0.23 0.22 0.21 0.22 0.22 0.20 0.19 0.18 0.17 0.18 0.18 0.20 0.20 0.19 0.19 0.18 0.19 0.19 0.20 0.20 0.22 0.23 0.24 0.23 0.22 0.22 0.21 0.22 0.23 0.23 0.23 0.22 0.21 0.20 0.22 0.23 0.21 0.20 0.19 0.19 0.19 0.19 0.19 0.19 0.18 0.16 0.15 0.14 0.15 0.15 0.15 0.17 0.18 0.19 0.20 0.20 0.19 0.18 0.19 0.19 0.19 0.21 0.22 0.20 0.19 0.18 0.18 0.18 0.19 0.19 0.20 0.22 0.23 0.24 0.24 0.25 0.26 0.27 0.27 0.30
0.23 0.24 0.25 0.26 0.24 0.22 0.22 0.22 0.22 0.21 0.21 0.22 0.22 0.20 0.18 0.17 0.20 0.20 0.19 0.19 0.19 0.20 0.20 0.20 0.20 0.22 0.24 0.26 0.25 0.24 0.24 0.23 0.23 0.23 0.24 0.23 0.22 0.20 0.20 0.22 0.22 0.21 0.21 0.20 0.19 0.19 0.18 0.19 0.19 0.19 0.16 0.14 0.12 0.12 0.13 0.13 0.14 0.15 0.15 0.17 0.18 0.19 0.19 0.19 0.19 0.19 0.19 0.20 0.20 0.19 0.19 0.18 0.17 0.18 0.19 0.20 0.21 0.22 0.22 0.22 0.23 0.24 0.25 0.25 0.27
0.23 0.24 0.24 0.25 0.26 0.25 0.25 0.24 0.24 0.25 0.24 0.23 0.24 0.22 0.19 0.19 0.22 0.19 0.19 0.21 0.21 0.21 0.21 0.20 0.21 0.22 0.24 0.26 0.26 0.26 0.25 0.24 0.24 0.24 0.24 0.23 0.23 0.22 0.20 0.19 0.20 0.19 0.17 0.16 0.16 0.17 0.17 0.17 0.17 0.17 0.16 0.14 0.12 0.12 0.12 0.12 0.13 0.13 0.14 0.14 0.15 0.15 0.15 0.16 0.17 0.17 0.17 0.17 0.18 0.19 0.18 0.18 0.17 0.16 0.16 0.18 0.20 0.20 0.21 0.21 0.22 0.22 0.22 0.24 0.25
0.23 0.24 0.24 0.24 0.25 0.27 0.27 0.28 0.28 0.26 0.25 0.25 0.25 0.22 0.20 0.20 0.21 0.18 0.20 0.19 0.20 0.21 0.22 0.20 0.20 0.22 0.25 0.27 0.27 0.26 0.25 0.24 0.23 0.23 0.23 0.22 0.22 0.21 0.20 0.20 0.20 0.18 0.17 0.15 0.14 0.14 0.14 0.14 0.14 0.14 0.14 0.13 0.13 0.12 0.12 0.12 0.12 0.12 0.13 0.13 0.14 0.14 0.14 0.14 0.15 0.14 0.14 0.15 0.15 0.16 0.17 0.16 0.16 0.16 0.16 0.18 0.19 0.19 0.21 0.20 0.19 0.20 0.21 0.22 0.22
0.23 0.24 0.24 0.24 0.25 0.26 0.28 0.30 0.30 0.30 0.29 0.28 0.24 0.23 0.23 0.22 0.19 0.18 0.21 0.20 0.22 0.23 0.22 0.21 0.20 0.21 0.23 0.25 0.26 0.26 0.25 0.23 0.22 0.21 0.20 0.20 0.19 0.19 0.18 0.18 0.18 0.16 0.15 0.13 0.12 0.12 0.12 0.12 0.12 0.13 0.13 0.14 0.13 0.13 0.13 0.12 0.13 0.12 0.13 0.13 0.13 0.12 0.13 0.13 0.15 0.14 0.14 0.15 0.15 0.14 0.14 0.14 0.14 0.13 0.14 0.15 0.16 0.17 0.19 0.19 0.19 0.20 0.20 0.20 0.22
0.22 0.23 0.24 0.24 0.25 0.25 0.26 0.28 0.28 0.28 0.27 0.26 0.27 0.26 0.22 0.18 0.17 0.18 0.20 0.21 0.22 0.22 0.20 0.20 0.21 0.21 0.22 0.23 0.23 0.22 0.21 0.19 0.19 0.19 0.18 0.17 0.17 0.16 0.15 0.15 0.14 0.13 0.13 0.12 0.11 0.11 0.11 0.11 0.11 0.12 0.12 0.13 0.13 0.12 0.13 0.13 0.13 0.13 0.13 0.13 0.12 0.13 0.13 0.13 0.13 0.14 0.15 0.14 0.14 0.13 0.13 0.13 0.12 0.12 0.13 0.13 0.14 0.15 0.16 0.16 0.17 0.18 0.20 0.20 0.20
0.21 0.22 0.22 0.24 0.26 0.25 0.26 0.27 0.26 0.25 0.26 0.26 0.25 0.23 0.20 0.18 0.18 0.19 0.21 0.21 0.22 0.22 0.21 0.21 0.21 0.21 0.20 0.21 0.21 0.20 0.18 0.16 0.15 0.15 0.15 0.14 0.14 0.13 0.13 0.12 0.12 0.11 0.11 0.10 0.10 0.10 0.11 0.11 0.10 0.11 0.11 0.12 0.12 0.12 0.12 0.12 0.13 0.14 0.14 0.13 0.14 0.14 0.13 0.14 0.14 0.13 0.13 0.15 0.14 0.14 0.14 0.13 0.12 0.12 0.11 0.12 0.13 0.14 0.14 0.15 0.16 0.17 0.18 0.19 0.18